| time (UTC) | temp F | wind direction | speed MPH | gust MPH | rain 1hr in | rain 24hr in | rain mn in | humidity % | barometer mb |
| 20260906090517 | 68 | 0 | 0.0 | 0.0 | 0.00 | 0.00 | 0.00 | 83 | 1028.2 |
| 20260906085017 | 67 | 0 | 0.0 | 0.0 | 0.00 | 0.00 | 0.00 | 83 | 1028.3 |
| 20260906082017 | 65 | 0 | 0.0 | 0.0 | 0.00 | 0.00 | 0.00 | 85 | 1027.9 |
| 20260906081516 | 64 | 0 | 0.0 | 0.0 | 0.00 | 0.00 | 0.00 | 86 | 1027.8 |
| 20260906081016 | 64 | 0 | 0.0 | 0.0 | 0.00 | 0.00 | 0.00 | 86 | 1027.9 |
| 20260906080517 | 64 | 0 | 0.0 | 0.0 | 0.00 | 0.00 | 0.00 | 87 | 1027.8 |
| 20260906080018 | 63 | 0 | 0.0 | 0.0 | 0.00 | 0.00 | 0.00 | 88 | 1027.8 |
| 20260906075516 | 63 | 0 | 0.0 | 0.0 | 0.00 | 0.00 | 0.00 | 88 | 1027.7 |
| 20260906075017 | 62 | 0 | 0.0 | 0.0 | 0.00 | 0.00 | 0.00 | 89 | 1027.6 |
| 20260906074517 | 62 | 0 | 0.0 | 0.0 | 0.00 | 0.00 | 0.00 | 90 | 1027.5 |
| 20260906074018 | 62 | 0 | 0.0 | 0.0 | 0.00 | 0.00 | 0.00 | 90 | 1027.5 |
| 20260906073532 | 61 | 0 | 0.0 | 0.0 | 0.00 | 0.00 | 0.00 | 90 | 1027.5 |
| 20260906073016 | 60 | 0 | 0.0 | 0.0 | 0.00 | 0.00 | 0.00 | 87 | 1027.1 |
| 20260906072018 | 58 | 0 | 0.0 | 0.0 | 0.00 | 0.00 | 0.00 | 71 | 1026.7 |
| 20260906071518 | 57 | 0 | 0.0 | 0.0 | 0.00 | 0.00 | 0.00 | 71 | 1026.7 |
| 20260906071035 | 56 | 0 | 0.0 | 0.0 | 0.00 | 0.00 | 0.00 | 71 | 1026.7 |
| 20260906070018 | 56 | 0 | 0.0 | 0.0 | 0.00 | 0.00 | 0.00 | 71 | 1026.5 |
| 20260906065517 | 56 | 0 | 0.0 | 0.0 | 0.00 | 0.00 | 0.00 | 71 | 1026.4 |
| 20260906065017 | 55 | 0 | 0.0 | 0.0 | 0.00 | 0.00 | 0.00 | 71 | 1026.4 |
| 20260906064517 | 54 | 0 | 0.0 | 0.0 | 0.00 | 0.00 | 0.00 | 71 | 1026.3 |
| 20260906064017 | 54 | 0 | 0.0 | 0.0 | 0.00 | 0.00 | 0.00 | 71 | 1026.3 |
| 20260906063017 | 53 | 0 | 0.0 | 0.0 | 0.00 | 0.00 | 0.00 | 72 | 1025.9 |
| 20260906062016 | 50 | 0 | 0.0 | 0.0 | 0.00 | 0.00 | 0.00 | 72 | 1025.4 |
| 20260906061516 | 50 | 0 | 0.0 | 0.0 | 0.00 | 0.00 | 0.00 | 72 | 1025.3 |
| 20260906061017 | 49 | 0 | 0.0 | 0.0 | 0.00 | 0.00 | 0.00 | 72 | 1025.3 |
| 20260906060017 | 49 | 0 | 0.0 | 0.0 | 0.00 | 0.00 | 0.00 | 72 | 1025.2 |
| 20260906055536 | 48 | 0 | 0.0 | 0.0 | 0.00 | 0.00 | 0.00 | 72 | 1025.2 |
| 20260906055017 | 48 | 0 | 0.0 | 0.0 | 0.00 | 0.00 | 0.00 | 72 | 1025.2 |
| 20260906054517 | 48 | 0 | 0.0 | 0.0 | 0.00 | 0.00 | 0.00 | 72 | 1025.1 |
| 20260906054016 | 47 | 0 | 0.0 | 0.0 | 0.00 | 0.00 | 0.00 | 73 | 1025.0 |
| 20260906053517 | 47 | 0 | 0.0 | 0.0 | 0.00 | 0.00 | 0.00 | 73 | 1025.0 |
| 20260906053016 | 47 | 0 | 0.0 | 0.0 | 0.00 | 0.00 | 0.00 | 73 | 1025.0 |
| 20260906052535 | 47 | 0 | 0.0 | 0.0 | 0.00 | 0.00 | 0.00 | 73 | 1024.9 |
| 20260906052017 | 47 | 0 | 0.0 | 0.0 | 0.00 | 0.00 | 0.00 | 73 | 1024.9 |
| 20260906051517 | 47 | 0 | 0.0 | 0.0 | 0.00 | 0.00 | 0.00 | 73 | 1024.7 |
| 20260906051017 | 47 | 0 | 0.0 | 0.0 | 0.00 | 0.00 | 0.00 | 73 | 1024.9 |
| 20260906050517 | 47 | 0 | 0.0 | 0.0 | 0.00 | 0.00 | 0.00 | 73 | 1024.8 |
| 20260906050016 | 46 | 0 | 0.0 | 0.0 | 0.00 | 0.00 | 0.00 | 73 | 1024.7 |
| 20260906045517 | 46 | 0 | 0.0 | 0.0 | 0.00 | 0.00 | 0.00 | 73 | 1024.7 |
| 20260906045017 | 46 | 0 | 0.0 | 0.0 | 0.00 | 0.00 | 0.00 | 73 | 1024.6 |
| 20260906044517 | 47 | 0 | 0.0 | 0.0 | 0.00 | 0.00 | 0.00 | 73 | 1024.7 |
| 20260906044016 | 47 | 0 | 0.0 | 0.0 | 0.00 | 0.00 | 0.00 | 73 | 1024.7 |
| 20260906043517 | 47 | 0 | 0.0 | 0.0 | 0.00 | 0.00 | 0.00 | 73 | 1024.6 |
| 20260906043018 | 48 | 0 | 0.0 | 0.0 | 0.00 | 0.00 | 0.00 | 73 | 1024.7 |
| 20260906042535 | 48 | 0 | 0.0 | 0.0 | 0.00 | 0.00 | 0.00 | 73 | 1024.7 |
| 20260906042034 | 48 | 0 | 0.0 | 0.0 | 0.00 | 0.00 | 0.00 | 73 | 1024.8 |
| 20260906041018 | 48 | 0 | 0.0 | 0.0 | 0.00 | 0.00 | 0.00 | 73 | 1024.7 |
| 20260906040517 | 48 | 0 | 0.0 | 0.0 | 0.00 | 0.00 | 0.00 | 74 | 1024.7 |
| 20260906040017 | 49 | 0 | 0.0 | 0.0 | 0.00 | 0.00 | 0.00 | 73 | 1024.8 |
| 20260906035517 | 49 | 0 | 0.0 | 0.0 | 0.00 | 0.00 | 0.00 | 72 | 1024.8 |
| 20260906035016 | 49 | 0 | 0.0 | 0.0 | 0.00 | 0.00 | 0.00 | 72 | 1024.7 |
| 20260906033518 | 48 | 0 | 0.0 | 0.0 | 0.00 | 0.00 | 0.00 | 74 | 1024.7 |
| 20260906033017 | 48 | 0 | 0.0 | 0.0 | 0.00 | 0.00 | 0.00 | 73 | 1024.6 |
| 20260906032517 | 48 | 0 | 0.0 | 0.0 | 0.00 | 0.00 | 0.00 | 73 | 1024.7 |
| 20260906032016 | 49 | 0 | 0.0 | 0.0 | 0.00 | 0.00 | 0.00 | 73 | 1024.7 |
| 20260906031518 | 49 | 0 | 0.0 | 0.0 | 0.00 | 0.00 | 0.00 | 73 | 1024.6 |
| 20260906031017 | 49 | 0 | 0.0 | 0.0 | 0.00 | 0.00 | 0.00 | 73 | 1024.7 |
| 20260906030518 | 49 | 0 | 0.0 | 0.0 | 0.00 | 0.00 | 0.00 | 73 | 1024.6 |
| 20260906030017 | 49 | 0 | 0.0 | 0.0 | 0.00 | 0.00 | 0.00 | 74 | 1024.5 |
| 20260906025517 | 49 | 0 | 0.0 | 0.0 | 0.00 | 0.00 | 0.00 | 73 | 1024.5 |
| 20260906025017 | 49 | 0 | 0.0 | 0.0 | 0.00 | 0.00 | 0.00 | 73 | 1024.5 |
| 20260906024517 | 50 | 0 | 0.0 | 0.0 | 0.00 | 0.00 | 0.00 | 73 | 1024.5 |
| 20260906024017 | 50 | 0 | 0.0 | 0.0 | 0.00 | 0.00 | 0.00 | 73 | 1024.5 |
| 20260906023516 | 50 | 0 | 0.0 | 0.0 | 0.00 | 0.00 | 0.00 | 73 | 1024.6 |
| 20260906023017 | 50 | 0 | 0.0 | 0.0 | 0.00 | 0.00 | 0.00 | 73 | 1024.5 |
| 20260906021017 | 50 | 0 | 0.0 | 0.0 | 0.00 | 0.00 | 0.00 | 74 | 1024.5 |
| 20260906020517 | 50 | 0 | 0.0 | 0.0 | 0.00 | 0.00 | 0.00 | 74 | 1024.6 |
| 20260906020017 | 50 | 0 | 0.0 | 0.0 | 0.00 | 0.00 | 0.00 | 74 | 1024.5 |
| 20260906015517 | 51 | 0 | 0.0 | 0.0 | 0.00 | 0.00 | 0.00 | 74 | 1024.5 |
| 20260906015017 | 51 | 0 | 0.0 | 0.0 | 0.00 | 0.00 | 0.00 | 73 | 1024.6 |
| 20260906014517 | 51 | 0 | 0.0 | 0.0 | 0.00 | 0.00 | 0.00 | 73 | 1024.6 |
| 20260906014017 | 52 | 0 | 0.0 | 0.0 | 0.00 | 0.00 | 0.00 | 73 | 1024.7 |
| 20260906013517 | 52 | 0 | 0.0 | 0.0 | 0.00 | 0.00 | 0.00 | 73 | 1024.8 |
| 20260906012516 | 52 | 0 | 0.0 | 0.0 | 0.00 | 0.00 | 0.00 | 73 | 1024.7 |
| 20260906012017 | 53 | 0 | 0.0 | 0.0 | 0.00 | 0.00 | 0.00 | 72 | 1024.7 |
| 20260906011516 | 53 | 0 | 0.0 | 0.0 | 0.00 | 0.00 | 0.00 | 72 | 1024.7 |
| 20260906011017 | 53 | 0 | 0.0 | 0.0 | 0.00 | 0.00 | 0.00 | 72 | 1024.6 |
| 20260906010537 | 53 | 0 | 0.0 | 0.0 | 0.00 | 0.00 | 0.00 | 72 | 1024.5 |
| 20260906010018 | 53 | 0 | 0.0 | 0.0 | 0.00 | 0.00 | 0.00 | 72 | 1024.6 |
| 20260906005016 | 53 | 0 | 0.0 | 0.0 | 0.00 | 0.00 | 0.00 | 72 | 1024.5 |
| 20260906004518 | 53 | 0 | 0.0 | 0.0 | 0.00 | 0.00 | 0.00 | 73 | 1024.5 |
| 20260906003517 | 53 | 0 | 0.0 | 0.0 | 0.00 | 0.00 | 0.00 | 73 | 1024.6 |
| 20260906003017 | 53 | 0 | 0.0 | 0.0 | 0.00 | 0.00 | 0.00 | 73 | 1024.6 |
| 20260906002518 | 53 | 0 | 0.0 | 0.0 | 0.00 | 0.00 | 0.00 | 73 | 1024.6 |
| 20260906002016 | 53 | 0 | 0.0 | 0.0 | 0.00 | 0.00 | 0.00 | 73 | 1024.5 |
| 20260906001017 | 52 | 0 | 0.0 | 0.0 | 0.00 | 0.00 | 0.00 | 73 | 1024.3 |
| 20260906000517 | 52 | 0 | 0.0 | 0.0 | 0.00 | 0.00 | 0.00 | 74 | 1024.4 |
| 20260905235517 | 52 | 0 | 0.0 | 0.0 | 0.00 | 0.00 | 0.00 | 74 | 1024.4 |
| 20260905235017 | 52 | 0 | 0.0 | 0.0 | 0.00 | 0.00 | 0.00 | 74 | 1024.4 |
| 20260905234517 | 52 | 0 | 0.0 | 0.0 | 0.00 | 0.00 | 0.00 | 74 | 1024.5 |
| 20260905231517 | 54 | 0 | 0.0 | 0.0 | 0.00 | 0.00 | 0.00 | 74 | 1024.6 |
| 20260905231017 | 54 | 0 | 0.0 | 0.0 | 0.00 | 0.00 | 0.00 | 74 | 1024.6 |
| 20260905230517 | 54 | 0 | 0.0 | 0.0 | 0.00 | 0.00 | 0.00 | 74 | 1024.6 |
| 20260905230017 | 54 | 0 | 0.0 | 0.0 | 0.00 | 0.00 | 0.00 | 75 | 1024.6 |
| 20260905225518 | 54 | 0 | 0.0 | 0.0 | 0.00 | 0.00 | 0.00 | 74 | 1024.8 |
| 20260905225017 | 54 | 0 | 0.0 | 0.0 | 0.00 | 0.00 | 0.00 | 75 | 1024.6 |
| 20260905224517 | 54 | 0 | 0.0 | 0.0 | 0.00 | 0.00 | 0.00 | 75 | 1024.5 |
| 20260905224016 | 54 | 0 | 0.0 | 0.0 | 0.00 | 0.00 | 0.00 | 75 | 1024.5 |
| 20260905223517 | 54 | 0 | 0.0 | 0.0 | 0.00 | 0.00 | 0.00 | 76 | 1024.5 |
| 20260905223017 | 54 | 0 | 0.0 | 0.0 | 0.00 | 0.00 | 0.00 | 76 | 1024.5 |
| 20260905222517 | 54 | 0 | 0.0 | 0.0 | 0.00 | 0.00 | 0.00 | 77 | 1024.4 |
| 20260905222017 | 54 | 0 | 0.0 | 0.0 | 0.00 | 0.00 | 0.00 | 77 | 1024.5 |
| 20260905221517 | 54 | 0 | 0.0 | 0.0 | 0.00 | 0.00 | 0.00 | 78 | 1024.3 |
| 20260905221017 | 54 | 0 | 0.0 | 0.0 | 0.00 | 0.00 | 0.00 | 78 | 1024.3 |
| 20260905220517 | 54 | 0 | 0.0 | 0.0 | 0.00 | 0.00 | 0.00 | 78 | 1024.4 |
| 20260905220017 | 55 | 0 | 0.0 | 0.0 | 0.00 | 0.00 | 0.00 | 78 | 1024.4 |
| 20260905215517 | 55 | 0 | 0.0 | 0.0 | 0.00 | 0.00 | 0.00 | 79 | 1024.3 |
| 20260905215018 | 55 | 0 | 0.0 | 0.0 | 0.00 | 0.00 | 0.00 | 79 | 1024.4 |
| 20260905214017 | 55 | 0 | 0.0 | 0.0 | 0.00 | 0.00 | 0.00 | 80 | 1024.4 |
| 20260905213517 | 55 | 0 | 0.0 | 0.0 | 0.00 | 0.00 | 0.00 | 81 | 1024.3 |
| 20260905213017 | 56 | 0 | 0.0 | 0.0 | 0.00 | 0.00 | 0.00 | 82 | 1024.4 |
| 20260905212517 | 56 | 0 | 0.0 | 0.0 | 0.00 | 0.00 | 0.00 | 82 | 1024.4 |
| 20260905212017 | 56 | 0 | 0.0 | 0.0 | 0.00 | 0.00 | 0.00 | 82 | 1024.4 |
| 20260905211517 | 57 | 0 | 0.0 | 0.0 | 0.00 | 0.00 | 0.00 | 83 | 1024.4 |
| 20260905211043 | 57 | 0 | 0.0 | 0.0 | 0.00 | 0.00 | 0.00 | 83 | 1024.4 |
| 20260905210517 | 57 | 0 | 0.0 | 0.0 | 0.00 | 0.00 | 0.00 | 83 | 1024.4 |
| 20260905204517 | 58 | 0 | 0.0 | 0.0 | 0.00 | 0.00 | 0.00 | 86 | 1024.4 |
| 20260905204017 | 58 | 0 | 0.0 | 0.0 | 0.00 | 0.00 | 0.00 | 86 | 1024.3 |
| 20260905203517 | 59 | 0 | 0.0 | 0.0 | 0.00 | 0.00 | 0.00 | 86 | 1024.4 |
| 20260905203017 | 59 | 0 | 0.0 | 0.0 | 0.00 | 0.00 | 0.00 | 86 | 1024.5 |
| 20260905202517 | 59 | 0 | 0.0 | 0.0 | 0.00 | 0.00 | 0.00 | 86 | 1024.5 |
| 20260905202016 | 60 | 0 | 0.0 | 0.0 | 0.00 | 0.00 | 0.00 | 86 | 1024.5 |
| 20260905201517 | 60 | 0 | 0.0 | 0.0 | 0.00 | 0.00 | 0.00 | 85 | 1024.4 |
| 20260905201016 | 59 | 0 | 0.0 | 0.0 | 0.00 | 0.00 | 0.00 | 86 | 1024.3 |
| 20260905200516 | 59 | 0 | 0.0 | 0.0 | 0.00 | 0.00 | 0.00 | 86 | 1024.2 |
| 20260905200017 | 60 | 0 | 0.0 | 0.0 | 0.00 | 0.00 | 0.00 | 87 | 1024.1 |
| 20260905195516 | 60 | 0 | 0.0 | 0.0 | 0.00 | 0.00 | 0.00 | 88 | 1024.2 |
| 20260905195016 | 60 | 0 | 0.0 | 0.0 | 0.00 | 0.00 | 0.00 | 88 | 1024.3 |
| 20260905194516 | 60 | 0 | 0.0 | 0.0 | 0.00 | 0.00 | 0.00 | 89 | 1024.3 |
| 20260905194016 | 61 | 0 | 0.0 | 0.0 | 0.00 | 0.00 | 0.00 | 89 | 1024.3 |
| 20260905193516 | 61 | 0 | 0.0 | 0.0 | 0.00 | 0.00 | 0.00 | 89 | 1024.4 |
| 20260905193016 | 62 | 0 | 0.0 | 0.0 | 0.00 | 0.00 | 0.00 | 89 | 1024.3 |
| 20260905192517 | 62 | 0 | 0.0 | 0.0 | 0.00 | 0.00 | 0.00 | 89 | 1024.2 |
| 20260905192017 | 62 | 0 | 0.0 | 0.0 | 0.00 | 0.00 | 0.00 | 89 | 1024.2 |
| 20260905191517 | 62 | 0 | 0.0 | 0.0 | 0.00 | 0.00 | 0.00 | 89 | 1024.2 |
| 20260905191016 | 62 | 0 | 0.0 | 0.0 | 0.00 | 0.00 | 0.00 | 89 | 1024.2 |
| 20260905190518 | 63 | 0 | 0.0 | 0.0 | 0.00 | 0.00 | 0.00 | 89 | 1024.2 |
| 20260905190017 | 63 | 0 | 0.0 | 0.0 | 0.00 | 0.00 | 0.00 | 89 | 1024.2 |
| 20260905185517 | 63 | 0 | 0.0 | 0.0 | 0.00 | 0.00 | 0.00 | 89 | 1024.1 |
| 20260905184017 | 63 | 0 | 0.0 | 0.0 | 0.00 | 0.00 | 0.00 | 89 | 1023.6 |
| 20260905183516 | 64 | 0 | 0.0 | 0.0 | 0.00 | 0.00 | 0.00 | 89 | 1023.7 |
| 20260905183017 | 64 | 0 | 0.0 | 0.0 | 0.00 | 0.00 | 0.00 | 89 | 1023.6 |
| 20260905182517 | 64 | 0 | 0.0 | 0.0 | 0.00 | 0.00 | 0.00 | 89 | 1023.6 |
| 20260905182016 | 64 | 0 | 0.0 | 0.0 | 0.00 | 0.00 | 0.00 | 89 | 1023.4 |
| 20260905181517 | 64 | 0 | 0.0 | 0.0 | 0.00 | 0.00 | 0.00 | 90 | 1023.5 |
| 20260905181017 | 65 | 0 | 0.0 | 0.0 | 0.00 | 0.00 | 0.00 | 90 | 1023.4 |
| 20260905180517 | 65 | 0 | 0.0 | 0.0 | 0.00 | 0.00 | 0.00 | 90 | 1023.4 |
| 20260905180018 | 65 | 0 | 0.0 | 0.0 | 0.00 | 0.00 | 0.00 | 90 | 1023.4 |
| 20260905175517 | 66 | 0 | 0.0 | 0.0 | 0.00 | 0.00 | 0.00 | 90 | 1023.4 |
| 20260905175018 | 66 | 0 | 0.0 | 0.0 | 0.00 | 0.00 | 0.00 | 89 | 1023.4 |
| 20260905174516 | 66 | 0 | 0.0 | 0.0 | 0.00 | 0.00 | 0.00 | 89 | 1023.3 |
| 20260905174017 | 67 | 0 | 0.0 | 0.0 | 0.00 | 0.00 | 0.00 | 89 | 1023.2 |
| 20260905173516 | 67 | 0 | 0.0 | 0.0 | 0.00 | 0.00 | 0.00 | 89 | 1023.3 |
| 20260905173016 | 67 | 0 | 0.0 | 0.0 | 0.00 | 0.00 | 0.00 | 88 | 1023.3 |
| 20260905172521 | 67 | 0 | 0.0 | 0.0 | 0.00 | 0.00 | 0.00 | 88 | 1023.3 |
| 20260905172016 | 68 | 0 | 0.0 | 0.0 | 0.00 | 0.00 | 0.00 | 88 | 1023.3 |
| 20260905171517 | 68 | 0 | 0.0 | 0.0 | 0.00 | 0.00 | 0.00 | 87 | 1023.2 |
| 20260905171017 | 68 | 0 | 0.0 | 0.0 | 0.00 | 0.00 | 0.00 | 87 | 1023.3 |
| 20260905165517 | 70 | 0 | 0.0 | 0.0 | 0.00 | 0.00 | 0.00 | 86 | 1023.5 |
| 20260905165016 | 70 | 0 | 0.0 | 0.0 | 0.00 | 0.00 | 0.00 | 86 | 1023.5 |
| 20260905164517 | 71 | 0 | 0.0 | 0.0 | 0.00 | 0.00 | 0.00 | 86 | 1023.5 |
| 20260905164017 | 71 | 0 | 0.0 | 0.0 | 0.00 | 0.00 | 0.00 | 87 | 1023.6 |
| 20260905163517 | 71 | 0 | 0.0 | 0.0 | 0.00 | 0.00 | 0.00 | 87 | 1023.6 |
| 20260905163017 | 71 | 0 | 0.0 | 0.0 | 0.00 | 0.00 | 0.00 | 86 | 1023.5 |
| 20260905162517 | 72 | 0 | 0.0 | 0.0 | 0.00 | 0.00 | 0.00 | 87 | 1023.4 |
| 20260905162017 | 72 | 0 | 0.0 | 0.0 | 0.00 | 0.00 | 0.00 | 87 | 1023.4 |
| 20260905161517 | 72 | 0 | 0.0 | 0.0 | 0.00 | 0.00 | 0.00 | 87 | 1023.4 |
| 20260905161041 | 72 | 0 | 0.0 | 0.0 | 0.00 | 0.00 | 0.00 | 86 | 1023.3 |
| 20260905160516 | 72 | 0 | 0.0 | 0.0 | 0.00 | 0.00 | 0.00 | 87 | 1023.3 |
| 20260905160017 | 72 | 0 | 0.0 | 0.0 | 0.00 | 0.00 | 0.00 | 87 | 1023.3 |
| 20260905155516 | 72 | 0 | 0.0 | 0.0 | 0.00 | 0.00 | 0.00 | 87 | 1023.2 |
| 20260905155017 | 72 | 0 | 0.0 | 0.0 | 0.00 | 0.00 | 0.00 | 87 | 1023.2 |
| 20260905154516 | 72 | 0 | 0.0 | 0.0 | 0.00 | 0.00 | 0.00 | 87 | 1023.1 |
| 20260905154017 | 72 | 0 | 0.0 | 0.0 | 0.00 | 0.00 | 0.00 | 87 | 1023.1 |
| 20260905152517 | 73 | 0 | 0.0 | 0.0 | 0.00 | 0.00 | 0.00 | 85 | 1023.2 |
| 20260905152018 | 73 | 0 | 0.0 | 0.0 | 0.00 | 0.00 | 0.00 | 85 | 1023.3 |
| 20260905150017 | 73 | 0 | 0.0 | 0.0 | 0.00 | 0.00 | 0.00 | 84 | 1023.5 |
| 20260905145516 | 73 | 0 | 0.0 | 0.0 | 0.00 | 0.00 | 0.00 | 84 | 1023.4 |
| 20260905145018 | 73 | 0 | 0.0 | 0.0 | 0.00 | 0.00 | 0.00 | 84 | 1023.4 |
| 20260905144516 | 72 | 0 | 0.0 | 0.0 | 0.00 | 0.00 | 0.00 | 84 | 1023.4 |
| 20260905144016 | 72 | 0 | 0.0 | 0.0 | 0.00 | 0.00 | 0.00 | 84 | 1023.4 |
| 20260905143517 | 72 | 0 | 0.0 | 0.0 | 0.00 | 0.00 | 0.00 | 86 | 1023.4 |
| 20260905143017 | 71 | 0 | 0.0 | 0.0 | 0.00 | 0.00 | 0.00 | 85 | 1023.3 |
| 20260905141516 | 71 | 0 | 0.0 | 0.0 | 0.00 | 0.00 | 0.00 | 84 | 1023.3 |
| 20260905141016 | 71 | 0 | 0.0 | 0.0 | 0.00 | 0.00 | 0.00 | 85 | 1023.4 |
| 20260905140517 | 71 | 0 | 0.0 | 0.0 | 0.00 | 0.00 | 0.00 | 84 | 1023.4 |
| 20260905140018 | 72 | 0 | 0.0 | 0.0 | 0.00 | 0.00 | 0.00 | 84 | 1023.4 |
| 20260905135517 | 72 | 0 | 0.0 | 0.0 | 0.00 | 0.00 | 0.00 | 84 | 1023.2 |
| 20260905135017 | 71 | 0 | 0.0 | 0.0 | 0.00 | 0.00 | 0.00 | 84 | 1023.4 |
| 20260905134516 | 71 | 0 | 0.0 | 0.0 | 0.00 | 0.00 | 0.00 | 84 | 1023.3 |
| 20260905134016 | 71 | 0 | 0.0 | 0.0 | 0.00 | 0.00 | 0.00 | 84 | 1023.3 |
| 20260905133518 | 71 | 0 | 0.0 | 0.0 | 0.00 | 0.00 | 0.00 | 84 | 1023.2 |
| 20260905133017 | 71 | 0 | 0.0 | 0.0 | 0.00 | 0.00 | 0.00 | 84 | 1023.3 |
| 20260905132517 | 71 | 0 | 0.0 | 0.0 | 0.00 | 0.00 | 0.00 | 85 | 1023.3 |
| 20260905130516 | 70 | 0 | 0.0 | 0.0 | 0.00 | 0.00 | 0.00 | 86 | 1023.1 |
| 20260905130017 | 69 | 0 | 0.0 | 0.0 | 0.00 | 0.00 | 0.00 | 85 | 1023.1 |
| 20260905125516 | 69 | 0 | 0.0 | 0.0 | 0.00 | 0.00 | 0.00 | 85 | 1022.9 |
| 20260905125016 | 69 | 0 | 0.0 | 0.0 | 0.00 | 0.00 | 0.00 | 85 | 1023.0 |
| 20260905124517 | 69 | 0 | 0.0 | 0.0 | 0.00 | 0.00 | 0.00 | 87 | 1023.0 |
| 20260905124019 | 69 | 0 | 0.0 | 0.0 | 0.00 | 0.00 | 0.00 | 88 | 1023.0 |
| 20260905123517 | 68 | 0 | 0.0 | 0.0 | 0.00 | 0.00 | 0.00 | 89 | 1022.9 |
| 20260905121517 | 67 | 0 | 0.0 | 0.0 | 0.00 | 0.00 | 0.00 | 90 | 1022.7 |
| 20260905121017 | 66 | 0 | 0.0 | 0.0 | 0.00 | 0.00 | 0.00 | 90 | 1022.6 |
| 20260905120516 | 65 | 0 | 0.0 | 0.0 | 0.00 | 0.00 | 0.00 | 89 | 1022.5 |
| 20260905120017 | 65 | 0 | 0.0 | 0.0 | 0.00 | 0.00 | 0.00 | 89 | 1022.4 |
| 20260905115516 | 64 | 0 | 0.0 | 0.0 | 0.00 | 0.00 | 0.00 | 86 | 1022.4 |
| 20260905115016 | 63 | 0 | 0.0 | 0.0 | 0.00 | 0.00 | 0.00 | 85 | 1022.4 |
| 20260905114517 | 63 | 0 | 0.0 | 0.0 | 0.00 | 0.00 | 0.00 | 86 | 1022.2 |
| 20260905114017 | 63 | 0 | 0.0 | 0.0 | 0.00 | 0.00 | 0.00 | 86 | 1022.2 |
| 20260905113542 | 62 | 0 | 0.0 | 0.0 | 0.00 | 0.00 | 0.00 | 85 | 1022.2 |
| 20260905113017 | 62 | 0 | 0.0 | 0.0 | 0.00 | 0.00 | 0.00 | 85 | 1022.0 |
| 20260905112517 | 62 | 0 | 0.0 | 0.0 | 0.00 | 0.00 | 0.00 | 85 | 1022.0 |
| 20260905112016 | 61 | 0 | 0.0 | 0.0 | 0.00 | 0.00 | 0.00 | 85 | 1021.9 |
| 20260905111517 | 61 | 0 | 0.0 | 0.0 | 0.00 | 0.00 | 0.00 | 84 | 1021.9 |
| 20260905111018 | 61 | 0 | 0.0 | 0.0 | 0.00 | 0.00 | 0.00 | 81 | 1021.8 |
| 20260905110517 | 60 | 0 | 0.0 | 0.0 | 0.00 | 0.00 | 0.00 | 82 | 1021.7 |
| 20260905110016 | 60 | 0 | 0.0 | 0.0 | 0.00 | 0.00 | 0.00 | 82 | 1021.6 |
| 20260905105517 | 60 | 0 | 0.0 | 0.0 | 0.00 | 0.00 | 0.00 | 82 | 1021.6 |
| 20260905105018 | 60 | 0 | 0.0 | 0.0 | 0.00 | 0.00 | 0.00 | 82 | 1021.6 |
| 20260905104518 | 59 | 0 | 0.0 | 0.0 | 0.00 | 0.00 | 0.00 | 83 | 1021.6 |
| 20260905104017 | 60 | 0 | 0.0 | 0.0 | 0.00 | 0.00 | 0.00 | 83 | 1021.6 |
| 20260905103517 | 60 | 0 | 0.0 | 0.0 | 0.00 | 0.00 | 0.00 | 84 | 1021.4 |
| 20260905103017 | 60 | 0 | 0.0 | 0.0 | 0.00 | 0.00 | 0.00 | 83 | 1021.4 |
| 20260905102517 | 60 | 0 | 0.0 | 0.0 | 0.00 | 0.00 | 0.00 | 83 | 1021.5 |
| 20260905102017 | 59 | 0 | 0.0 | 0.0 | 0.00 | 0.00 | 0.00 | 81 | 1021.4 |
| 20260905095516 | 59 | 0 | 0.0 | 0.0 | 0.00 | 0.00 | 0.00 | 81 | 1021.0 |
| 20260905095017 | 59 | 0 | 0.0 | 0.0 | 0.00 | 0.00 | 0.00 | 82 | 1021.0 |
| 20260905094516 | 59 | 0 | 0.0 | 0.0 | 0.00 | 0.00 | 0.00 | 83 | 1021.4 |
| 20260905094018 | 59 | 0 | 0.0 | 0.0 | 0.00 | 0.00 | 0.00 | 84 | 1021.2 |
| 20260905093517 | 59 | 0 | 0.0 | 0.0 | 0.00 | 0.00 | 0.00 | 85 | 1021.3 |
| 20260905091517 | 60 | 0 | 0.0 | 0.0 | 0.00 | 0.00 | 0.00 | 87 | 1021.4 |